Content
SEND FEEDBACK

Daily
Averages
Monthly
Summary
United States of America

MERIZO, GUAM


Home > North America > United States > Guam
Elevation: 3 meters     Latitude: 13 14N     Longitude: 144 39E

WEATHER
 
SELECT A DAY
Number of Records: 341,794;   Date Range: 1/1/95 - 7/23/14
 
SHARE

PRINT THIS DATA

[ ← Previous Day ]
WEATHER ALMANAC - 3 MAY, 2013
[ Next Day → ]
[ °F ]   °C
Weather ElementAverageHighLow
Temperature27.1 °C30 °C (2:12 pm)25 °C (3:35 am)
Dewpoint24.8 °C26 °C (10:31 am)22.9 °C (3:55 am)
Humidity87.4 %94 % (12:05 am)74 % (2:12 pm)
Barometer1011.2 hPa1013.2 hPa (10:05 pm)1009.8 hPa (2:14 am)
Wind Speed19 km/h31.5 km/h (10:55 am)
Wind Gust38.9 km/h (9:57 pm)
Weather ElementAverage
Visibility14 km
Wind DirectionESE (109.8 °)

Weather ElementTotal
Precipitation5.59 mm
Cooling Degree Days9.2 (Base 18.3)
Growing Degree Days17.5 (Base 10)
Averaged from 128 records on 3 May, 2013
WEATHER CONDITIONS BREAKOUT
WIND DIRECTION BREAKOUT
WEATHER BY HOUR - 3 MAY, 2013
[ °F ]   °C
Local TimeTemperatureDewpointHumidityBarometerVisibilityWind DirectionWind SpeedGust SpeedPrecipitationEventsConditions
12:05 AM26 °C25 °C94 %1010.5 hPa16.1 kmESE (120°)13 km/hScattered Clouds
12:12 AM26 °C25 °C94 %1010.5 hPa16.1 kmESE (120°)16.7 km/hMostly Cloudy
12:14 AM26 °C25 °C94 %1010.5 hPa16.1 kmESE (120°)14.8 km/hMostly Cloudy
12:16 AM26 °C25 °C94 %1010.5 hPa16.1 kmESE (120°)16.7 km/hMostly Cloudy
12:24 AM26 °C25 °C94 %1010.5 hPa16.1 kmESE (110°)16.7 km/hMostly Cloudy
12:32 AM26 °C25 °C94 %1010.5 hPa16.1 kmESE (110°)14.8 km/hMostly Cloudy
12:55 AM26.2 °C24.5 °C90 %1010.5 hPa16.1 kmESE (110°)18.5 km/hMostly Cloudy
1:01 AM26 °C24 °C89 %1010.5 hPa16.1 kmESE (110°)16.7 km/hMostly Cloudy
1:09 AM26 °C25 °C94 %1010.5 hPa16.1 kmESE (110°)14.8 km/hScattered Clouds
1:50 AM26 °C24 °C89 %1010.2 hPa16.1 kmESE (110°)16.7 km/hMostly Cloudy
1:55 AM25.8 °C23.9 °C89 %1010.2 hPa16.1 kmESE (120°)13 km/hMostly Cloudy
1:58 AM26 °C24 °C89 %1010.2 hPa16.1 kmESE (120°)14.8 km/hMostly Cloudy
2:05 AM26 °C24 °C89 %1010.2 hPa16.1 kmESE (120°)14.8 km/hRainLight Rain
2:06 AM26 °C24 °C89 %1010.2 hPa16.1 kmESE (120°)13 km/hRainLight Rain
2:11 AM26 °C24 °C89 %1010.2 hPa16.1 kmESE (120°)13 km/hRainLight Rain
2:14 AM26 °C24 °C89 %1009.8 hPa16.1 kmESE (110°)13 km/hScattered Clouds
2:55 AM26.2 °C24.6 °C91 %1009.8 hPa16.1 kmESE (110°)13 km/h0 mmScattered Clouds
3:22 AM26 °C25 °C94 %1009.8 hPa8 kmESE (120°)20.4 km/hMostly Cloudy
3:23 AM26 °C24 °C89 %1009.8 hPa8 kmESE (110°)20.4 km/hRainRain
3:26 AM26 °C24 °C89 %1009.8 hPa6.4 kmESE (110°)14.8 km/hRainRain
3:35 AM25 °C23 °C89 %1009.8 hPa16.1 kmESE (110°)14.8 km/hScattered Clouds
3:55 AM25.3 °C22.9 °C86 %1009.8 hPa16.1 kmESE (110°)18.5 km/h0.51 mmPartly Cloudy
4:17 AM26 °C24 °C89 %1009.8 hPa16.1 kmESE (120°)16.7 km/hMostly Cloudy
4:37 AM26 °C25 °C94 %1009.8 hPa16.1 kmEast (90°)18.5 km/hOvercast
4:40 AM26 °C25 °C94 %1009.8 hPa16.1 kmEast (100°)18.5 km/hOvercast
4:41 AM26 °C25 °C94 %1009.8 hPa16.1 kmEast (100°)22.2 km/hOvercast
4:42 AM26 °C25 °C94 %1009.8 hPa16.1 kmEast (100°)20.4 km/hOvercast
4:50 AM26 °C25 °C94 %1009.8 hPa16.1 kmESE (110°)20.4 km/hMostly Cloudy
4:53 AM26 °C25 °C94 %1009.8 hPa16.1 kmESE (110°)20.4 km/hMostly Cloudy
4:54 AM26 °C25 °C94 %1009.8 hPa16.1 kmESE (110°)20.4 km/hMostly Cloudy
4:55 AM25.8 °C24.5 °C92 %1009.8 hPa16.1 kmEast (100°)18.5 km/hMostly Cloudy
5:55 AM26 °C24.3 °C90 %1010.2 hPa16.1 kmEast (100°)16.7 km/hMostly Cloudy
6:25 AM27 °C25 °C89 %1010.5 hPa16.1 kmESE (110°)16.7 km/hMostly Cloudy
6:51 AM27 °C25 °C89 %1011.2 hPa16.1 kmESE (120°)16.7 km/hMostly Cloudy
6:54 AM27 °C25 °C89 %1012.5 hPa16.1 kmESE (120°)16.7 km/hMostly Cloudy
6:55 AM26.7 °C25 °C90 %1011.2 hPa16.1 kmESE (120°)14.8 km/hMostly Cloudy
6:57 AM27 °C25 °C89 %1011.2 hPa16.1 kmESE (120°)14.8 km/hScattered Clouds
7:12 AM27 °C25 °C89 %1011.2 hPa16.1 kmSSE (150°)11.1 km/hMostly Cloudy
7:15 AM27 °C25 °C89 %1011.5 hPa16.1 kmSE (130°)11.1 km/hMostly Cloudy
7:55 AM27.9 °C25.3 °C86 %1011.9 hPa16.1 kmESE (110°)18.5 km/hMostly Cloudy
8:13 AM28 °C25 °C84 %1012.2 hPa16.1 kmESE (120°)18.5 km/hScattered Clouds
8:33 AM28 °C25 °C84 %1012.2 hPa16.1 kmESE (120°)18.5 km/hMostly Cloudy
8:55 AM28.2 °C25.3 °C84 %1012.2 hPa16.1 kmESE (120°)20.4 km/hOvercast
9:06 AM29 °C25 °C79 %1012.2 hPa16.1 kmESE (110°)20.4 km/hMostly Cloudy
9:55 AM28.7 °C25.2 °C81 %1011.9 hPa16.1 kmESE (110°)22.2 km/hPartly Cloudy
10:31 AM29 °C26 °C84 %1011.5 hPa16.1 kmESE (110°)25.9 km/hMostly Cloudy
10:34 AM29 °C25 °C79 %1011.5 hPa16.1 kmESE (110°)27.8 km/hScattered Clouds
10:55 AM28.7 °C25 °C80 %1011.5 hPa16.1 kmESE (120°)31.5 km/h37 km/hMostly Cloudy
11:55 AM29.3 °C24.6 °C76 %1011.2 hPa16.1 kmESE (120°)25.9 km/hScattered Clouds
12:30 PM29 °C26 °C84 %1010.8 hPa16.1 kmESE (110°)25.9 km/hMostly Cloudy
12:55 PM28.8 °C25 °C80 %1010.8 hPa16.1 kmESE (110°)20.4 km/hMostly Cloudy
1:05 PM29 °C25 °C79 %1010.8 hPa9.7 kmESE (110°)22.2 km/hRainLight Rain
1:14 PM28 °C26 °C89 %1010.8 hPa12.9 kmESE (110°)24.1 km/hMostly Cloudy
1:16 PM28 °C25 °C84 %1010.8 hPa16.1 kmESE (120°)27.8 km/hMostly Cloudy
1:55 PM29.2 °C25.4 °C80 %1010.5 hPa16.1 kmESE (110°)22.2 km/h0.25 mmScattered Clouds
1:58 PM29 °C25 °C79 %1010.5 hPa16.1 kmESE (120°)20.4 km/hMostly Cloudy
2:00 PM29 °C25 °C79 %1010.2 hPa16.1 kmESE (120°)27.8 km/hMostly Cloudy
2:05 PM29 °C25 °C79 %1010.2 hPa16.1 kmESE (110°)25.9 km/h37 km/hMostly Cloudy
2:07 PM29 °C25 °C79 %1010.5 hPa16.1 kmESE (110°)24.1 km/h37 km/hScattered Clouds
2:12 PM30 °C25 °C74 %1010.5 hPa14.5 kmESE (120°)27.8 km/hMostly Cloudy
2:14 PM30 °C25 °C74 %1010.5 hPa14.5 kmESE (120°)25.9 km/hMostly Cloudy
2:47 PM30 °C25 °C74 %1010.2 hPa16.1 kmESE (110°)24.1 km/hScattered Clouds
2:53 PM30 °C25 °C74 %1010.2 hPa16.1 kmESE (120°)24.1 km/hMostly Cloudy
2:55 PM29.9 °C25.1 °C75 %1010.2 hPa16.1 kmESE (120°)25.9 km/hMostly Cloudy
2:57 PM30 °C25 °C74 %1010.2 hPa16.1 kmESE (110°)24.1 km/hMostly Cloudy
3:03 PM29 °C25 °C79 %1010.5 hPa16.1 kmEast (100°)20.4 km/hRainLight Rain
3:09 PM29 °C25 °C79 %1010.5 hPa16.1 kmESE (110°)20.4 km/hRainLight Rain
3:12 PM29 °C25 °C79 %1010.5 hPa16.1 kmESE (110°)20.4 km/hMostly Cloudy
3:52 PM28 °C25 °C84 %1010.2 hPa16.1 kmESE (110°)22.2 km/hMostly Cloudy
3:55 PM28.1 °C25.2 °C84 %1010.2 hPa16.1 kmESE (110°)24.1 km/h0 mmMostly Cloudy
3:56 PM28 °C25 °C84 %1010.2 hPa16.1 kmESE (110°)22.2 km/hMostly Cloudy
4:03 PM28 °C25 °C84 %1010.2 hPa16.1 kmESE (110°)22.2 km/hMostly Cloudy
4:04 PM28 °C25 °C84 %1010.2 hPa16.1 kmESE (110°)20.4 km/hOvercast
4:22 PM28 °C25 °C84 %1010.2 hPa16.1 kmESE (120°)20.4 km/hMostly Cloudy
4:24 PM28 °C25 °C84 %1010.2 hPa16.1 kmESE (120°)18.5 km/hMostly Cloudy
4:25 PM28 °C25 °C84 %1010.2 hPa16.1 kmESE (110°)16.7 km/hMostly Cloudy
4:28 PM28 °C25 °C84 %1010.2 hPa3.2 kmESE (120°)24.1 km/hRainLight Rain
4:29 PM28 °C25 °C84 %1010.2 hPa2.4 kmESE (120°)22.2 km/hRainHeavy Rain
4:30 PM28 °C25 °C84 %1010.2 hPa1.9 kmESE (110°)20.4 km/hRainHeavy Rain
4:34 PM27 °C25 °C89 %1010.2 hPa1.3 kmEast (100°)25.9 km/h35.2 km/hRainHeavy Rain
4:37 PM27 °C25 °C89 %1010.5 hPa1.3 kmEast (100°)27.8 km/hRainLight Rain
4:38 PM27 °C25 °C89 %1010.5 hPa1.6 kmESE (110°)24.1 km/hRainRain
4:40 PM26 °C25 °C94 %1010.5 hPa1.9 kmEast (100°)16.7 km/h35.2 km/hRainRain
4:42 PM26 °C24 °C89 %1010.5 hPa1.6 kmEast (90°)14.8 km/h35.2 km/hRainRain
4:43 PM26 °C24 °C89 %1010.5 hPa1.9 kmEast (100°)14.8 km/h35.2 km/hRainRain
4:45 PM26 °C24 °C89 %1010.5 hPa2.4 kmESE (110°)11.1 km/hRainRain
4:48 PM26 °C24 °C89 %1010.5 hPa4 kmESE (110°)13 km/hRainLight Rain
4:50 PM26 °C25 °C94 %1010.5 hPa6.4 kmESE (110°)13 km/hRainLight Rain
4:55 PM26.5 °C25.1 °C92 %1010.5 hPa14.5 kmEast (100°)13 km/h3.56 mmRainLight Rain
4:56 PM27 °C25 °C89 %1010.5 hPa16.1 kmEast (100°)14.8 km/hOvercast
4:58 PM27 °C25 °C89 %1010.5 hPa14.5 kmESE (110°)20.4 km/hMostly Cloudy
5:06 PM27 °C25 °C89 %1010.8 hPa14.5 kmEast (100°)18.5 km/hOvercast
5:14 PM27 °C25 °C89 %1010.5 hPa16.1 kmESE (110°)18.5 km/hMostly Cloudy
5:55 PM26.9 °C25.1 °C90 %1011.2 hPa16.1 kmESE (110°)16.7 km/hOvercast
6:55 PM26.7 °C24.6 °C88 %1011.9 hPa16.1 kmESE (110°)18.5 km/hMostly Cloudy
6:57 PM27 °C24 °C84 %1011.9 hPa16.1 kmEast (100°)18.5 km/hScattered Clouds
7:03 PM27 °C24 °C84 %1011.9 hPa16.1 kmEast (100°)16.7 km/hMostly Cloudy
7:13 PM27 °C25 °C89 %1012.2 hPa16.1 kmEast (100°)20.4 km/hScattered Clouds
7:16 PM27 °C25 °C89 %1012.2 hPa16.1 kmEast (100°)18.5 km/hMostly Cloudy
7:30 PM27 °C25 °C89 %1012.2 hPa16.1 kmESE (110°)14.8 km/hMostly Cloudy
7:55 PM26.6 °C24.8 °C90 %1012.2 hPa16.1 kmEast (100°)18.5 km/hMostly Cloudy
7:57 PM27 °C25 °C89 %1012.2 hPa16.1 kmEast (100°)18.5 km/hScattered Clouds
8:02 PM27 °C25 °C89 %1012.5 hPa16.1 kmEast (100°)18.5 km/hMostly Cloudy
8:12 PM27 °C25 °C89 %1012.5 hPa16.1 kmEast (90°)20.4 km/hScattered Clouds
8:26 PM27 °C25 °C89 %1012.9 hPa16.1 kmEast (100°)20.4 km/hMostly Cloudy
8:55 PM26.7 °C24.5 °C88 %1012.9 hPa16.1 kmEast (90°)24.1 km/hMostly Cloudy
9:08 PM26 °C24 °C89 %1012.9 hPa16.1 kmEast (100°)20.4 km/hMostly Cloudy
9:12 PM26 °C24 °C89 %1012.9 hPa16.1 kmEast (100°)20.4 km/hScattered Clouds
9:13 PM26 °C24 °C89 %1012.9 hPa16.1 kmEast (100°)18.5 km/hMostly Cloudy
9:18 PM26 °C24 °C89 %1012.9 hPa16.1 kmEast (100°)16.7 km/hScattered Clouds
9:50 PM26 °C25 °C94 %1012.9 hPa16.1 kmEast (100°)13 km/hMostly Cloudy
9:53 PM27 °C25 °C89 %1012.9 hPa16.1 kmEast (100°)14.8 km/hMostly Cloudy
9:55 PM26.6 °C25 °C91 %1012.9 hPa16.1 kmEast (100°)18.5 km/h29.6 km/hMostly Cloudy
9:57 PM27 °C25 °C89 %1012.9 hPa11.3 kmEast (90°)25.9 km/h38.9 km/hRainLight Rain
9:59 PM26 °C24 °C89 %1012.9 hPa9.7 kmEast (90°)22.2 km/h38.9 km/hRainLight Rain
10:05 PM26 °C24 °C89 %1013.2 hPa8 kmESE (110°)16.7 km/h38.9 km/hRainLight Rain
10:11 PM26 °C24 °C89 %1013.2 hPa16.1 kmESE (110°)14.8 km/hMostly Cloudy
10:22 PM26 °C25 °C94 %1013.2 hPa16.1 kmESE (120°)13 km/hMostly Cloudy
10:23 PM26 °C25 °C94 %1013.2 hPa16.1 kmESE (120°)13 km/hMostly Cloudy
10:40 PM26 °C25 °C94 %1012.9 hPa16.1 kmESE (110°)16.7 km/hMostly Cloudy
10:49 PM27 °C25 °C89 %1012.9 hPa16.1 kmEast (100°)18.5 km/hMostly Cloudy
10:55 PM26.5 °C25 °C91 %1012.9 hPa16.1 kmEast (100°)18.5 km/h0.25 mmMostly Cloudy
11:31 PM26 °C25 °C94 %1012.9 hPa4 kmESE (110°)24.1 km/hRainRain
11:38 PM26 °C24 °C89 %1012.9 hPa4 kmSE (130°)18.5 km/hRainLight Rain
11:39 PM26 °C24 °C89 %1012.9 hPa4.8 kmESE (120°)16.7 km/hRainLight Rain
11:41 PM25 °C24 °C94 %1012.9 hPa11.3 kmESE (110°)16.7 km/hRainLight Rain
11:50 PM25 °C24 °C94 %1012.9 hPa16.1 kmEast (100°)11.1 km/hMostly Cloudy
11:55 PM25.6 °C24.2 °C92 %1012.9 hPa16.1 kmEast (100°)11.1 km/h1.02 mmMostly Cloudy
Hourly data recorded from PGUA, located 0 kilometers away from Merizo, Guam







STORIES FROM OUR PARTNERS